Location: Maiden
(35.5760°N, 81.2120°W)
Time: 03:06:56
(UTC-04:00)

ERS-1 Rocket - Pass Details

Date: 02 August 2020
Orbit: 752 x 758 km, 98.5° (Epoch: 11 August)

Event Time Altitude Azimuth Distance (km) Brightness Sun altitude
Exits shadow 23:16:07 74° 317° (NW) 786 3.0 -28.1°
Drops below altitude 10° 23:20:45 10° 345° (NNW) 2,284 6.3 -28.7°
Sets 23:23:03 0° 347° (NNW) 3,212 7.2 -29.0°
